{"data":{"norad_id":57867,"intl_designator":"2023-144D","name":"STARLINK-30439","alt_names":[],"object_type":"PAYLOAD","status":"ACTIVE","operator":null,"country":"US","launch_date":"2023-09-16","launch_site_code":"AFETR","launch_vehicle":null,"mission":null,"orbit_class":"UNKNOWN","rcs_meters":null,"size_class":null,"mass_kg":null,"dimensions":null,"purposes":["comms"],"wikipedia_slug":null,"has_3d_model":false,"image_url":null,"decayed_at":null,"tle_current":{"epoch":"2026-05-25T05:29:21.230880Z","epoch_age_seconds":49312,"freshness":"FRESH","line1":"1 57867U 23144D   26145.22871795  .00020119  00000+0  73842-3 0  9995","line2":"2 57867  43.0004 212.9042 0001294 271.5626  88.5078 15.27590483149353","mean_motion":15.27590483,"eccentricity":0.0001294,"inclination_deg":43.0004,"raan_deg":212.9042,"arg_perigee_deg":271.5626,"mean_anomaly_deg":88.5078,"bstar":0.00073842,"rev_number":14935,"period_min":94.266101813623,"perigee_km":482.12987292692,"apogee_km":483.90553976492,"semimajor_km":6861.1547063459,"source":"CELESTRAK","updated_at":"2026-05-25T13:38:18.445975Z"}}}